Terminal Aerodrome Forecast
Issued by NWS Bismarck, ND

Home | Current Version | Previous Version | Text Only | Print | Product List | Glossary Off
Versions: 1 2 3 4 5 6 7 8 9 10 11 12 13 14 15 16 17 18

000
FTUS43 KBIS 172100 AAA
TAFBIS
TAF AMD
KBIS 172138Z 1722/1818 04007KT P6SM BKN025
      TEMPO 1722/1802 SCT025
     FM180600 10006KT P6SM BKN025=

USA.gov is the U.S. government's official web portal to all federal, state and local government web resources and services.